Tracking 18851 objects as of 25-Nov-2017
HD Live streaming from Space Station
objects crossing your sky now

FENGYUN 1C DEB

Track FENGYUN 1C DEB now!
10-day predictions


NORAD ID: 30858
Int'l Code: 1999-025AWU
Perigee: 829.8 km
Apogee: 875.3 km
Inclination: 99.1 °
Period: 101.8 minutes
Semi major axis: 7223 km
RCS: 0.0127 m2 (small)
Launch date: May 10, 1999
Source: People's Republic of China (PRC)
Launch site: Taiyaun Space Center, China (TSC)

Note: This is SATELLITE DEBRIS
aabbcc
Your satellite tracking list
Your tracking list is empty




NASA's NSSDC Master Catalog

Two Line Element Set (TLE):
1 30858U 99025AWU 17328.58323737 +.00000219 +00000-0 +13849-3 0  9998
2 30858 099.0765 329.9548 0031487 166.9902 321.7847 14.14094647553957
Source of the keplerian elements: AFSPC